• In Schweiz
  • Länderverzeichnis
  • Für 7 Tage
  • Wassertemperatur
  • Satellitenkarten
  • Wetterkarte
  • Widgets
  • user-avatar
    Anmelden

    Stündliche Wetter Steinkjer

    Heute, 21 Oktober, Sonntag

    Zeit Temperatur Niederschläge Wind Luftdruck Luftfeuchtigkeit
    00:00 +6°C° 1.9 mm 4 m/S 749 mmHg 87%
    01:00 +6°C° 1.9 mm 4 m/S 749 mmHg 90%
    02:00 +6°C° 0.6 mm 4 m/S 748 mmHg 90%
    03:00 +7°C° 0.6 mm 5 m/S 748 mmHg 90%
    04:00 +7°C° 0.6 mm 5 m/S 748 mmHg 90%
    05:00 +7°C° 0.2 mm 5 m/S 748 mmHg 90%
    06:00 +8°C° 0.2 mm 6 m/S 748 mmHg 90%
    07:00 +8°C° 0.2 mm 6 m/S 748 mmHg 90%
    08:00 +8°C° 0.2 mm 6 m/S 748 mmHg 88%
    09:00 +8°C° 0.2 mm 7 m/S 748 mmHg 86%
    10:00 +8°C° 0.2 mm 7 m/S 748 mmHg 85%
    11:00 +8°C° 0.2 mm 7 m/S 748 mmHg 83%
    12:00 +8°C° 0.2 mm 7 m/S 747 mmHg 82%
    13:00 +6°C° 0.2 mm 7 m/S 747 mmHg 80%
    14:00 +6°C° 0.4 mm 7 m/S 747 mmHg 82%
    15:00 +6°C° 0.4 mm 7 m/S 747 mmHg 84%
    16:00 +7°C° 0.4 mm 6 m/S 746 mmHg 86%
    17:00 +5°C° 0.3 mm 6 m/S 746 mmHg 85%
    18:00 +5°C° 0.3 mm 6 m/S 746 mmHg 84%
    19:00 +5°C° 0.3 mm 6 m/S 746 mmHg 83%
    20:00 +4°C° 0.1 mm 6 m/S 746 mmHg 82%
    21:00 +4°C° 0.1 mm 6 m/S 746 mmHg 81%
    22:00 +3°C° 0.1 mm 6 m/S 745 mmHg 80%
    23:00 +3°C° 0.2 mm 7 m/S 745 mmHg 80%

    Morgen, 22 Oktober, Montag

    Zeit Temperatur Niederschläge Wind Luftdruck Luftfeuchtigkeit
    00:00 +3°C° 0.2 mm 7 m/S 745 mmHg 80%
    01:00 +2°C° 0.2 mm 8 m/S 745 mmHg 80%
    02:00 +2°C° 0.5 mm 9 m/S 744 mmHg 77%
    03:00 +2°C° 0.5 mm 9 m/S 744 mmHg 75%
    04:00 +2°C° 0.5 mm 10 m/S 744 mmHg 72%
    05:00 +2°C° 0.6 mm 11 m/S 743 mmHg 74%
    06:00 +2°C° 0.6 mm 12 m/S 743 mmHg 76%
    07:00 +1°C° 0.6 mm 13 m/S 743 mmHg 77%
    08:00 +2°C° 0.9 mm 12 m/S 744 mmHg 78%
    09:00 +2°C° 0.9 mm 12 m/S 744 mmHg 78%
    10:00 +1°C° 0.9 mm 11 m/S 745 mmHg 78%
    11:00 +1°C° 0.6 mm 10 m/S 746 mmHg 78%
    12:00 +1°C° 0.6 mm 10 m/S 747 mmHg 78%
    13:00 +1°C° 0.6 mm 9 m/S 747 mmHg 77%
    14:00 +1°C° 0.2 mm 9 m/S 747 mmHg 77%
    15:00 +1°C° 0.2 mm 8 m/S 747 mmHg 78%
    16:00 +2°C° 0.2 mm 7 m/S 747 mmHg 78%
    17:00 +2°C° 0.3 mm 7 m/S 746 mmHg 79%
    18:00 +2°C° 0.3 mm 7 m/S 746 mmHg 81%
    19:00 +2°C° 0.3 mm 7 m/S 745 mmHg 83%
    20:00 +2°C° 0.3 mm 6 m/S 744 mmHg 84%
    21:00 +2°C° 0.3 mm 5 m/S 743 mmHg 85%
    22:00 +3°C° 0.3 mm 4 m/S 741 mmHg 87%
    23:00 +1°C° 0.6 mm 4 m/S 740 mmHg 86%

    übermorgen, 23 Oktober, Dienstag

    Zeit Temperatur Niederschläge Wind Luftdruck Luftfeuchtigkeit
    00:00 +2°C° 0.6 mm 3 m/S 739 mmHg 86%
    01:00 +3°C° 0.6 mm 2 m/S 738 mmHg 85%
    02:00 +2°C° 0.6 mm 3 m/S 738 mmHg 87%
    03:00 +1°C° 0.6 mm 4 m/S 738 mmHg 90%
    04:00 +3°C° 0.6 mm 4 m/S 737 mmHg 92%
    05:00 +1°C° 0.3 mm 5 m/S 737 mmHg 89%
    06:00 +1°C° 0.3 mm 5 m/S 737 mmHg 85%
    07:00 +1°C° 0.3 mm 6 m/S 737 mmHg 82%
    08:00 +1°C° 0.2 mm 6 m/S 738 mmHg 81%
    09:00 +1°C° 0.2 mm 6 m/S 738 mmHg 80%
    10:00 +1°C° 0.2 mm 6 m/S 738 mmHg 80%
    11:00 +1°C° 0.4 mm 6 m/S 739 mmHg 79%
    12:00 0°C° 0.4 mm 7 m/S 739 mmHg 79%
    13:00 0°C° 0.4 mm 7 m/S 739 mmHg 79%
    14:00 0°C° 0.3 mm 7 m/S 739 mmHg 79%
    15:00 0°C° 0.3 mm 7 m/S 740 mmHg 79%
    16:00 0°C° 0.3 mm 7 m/S 740 mmHg 79%
    17:00 0°C° 0.3 mm 7 m/S 741 mmHg 79%
    18:00 0°C° 0.3 mm 7 m/S 741 mmHg 80%
    19:00 0°C° 0.3 mm 8 m/S 741 mmHg 81%
    20:00 0°C° 0.3 mm 8 m/S 742 mmHg 80%
    21:00 0°C° 0.3 mm 8 m/S 742 mmHg 80%
    22:00 0°C° 0.3 mm 8 m/S 743 mmHg 80%
    23:00 0°C° 0.4 mm 8 m/S 743 mmHg 81%

    24 Oktober, Mittwoch

    Zeit Temperatur Niederschläge Wind Luftdruck Luftfeuchtigkeit
    00:00 0°C° 0.4 mm 8 m/S 743 mmHg 81%
    01:00 0°C° 0.4 mm 8 m/S 744 mmHg 82%
    02:00 0°C° 0.4 mm 9 m/S 744 mmHg 82%
    03:00 0°C° 0.4 mm 9 m/S 745 mmHg 81%
    04:00 0°C° 0.4 mm 9 m/S 745 mmHg 81%
    05:00 0°C° 0.3 mm 9 m/S 746 mmHg 81%
    06:00 0°C° 0.3 mm 9 m/S 747 mmHg 81%
    07:00 0°C° 0.3 mm 9 m/S 747 mmHg 81%
    08:00 0°C° 0.3 mm 9 m/S 748 mmHg 81%
    09:00 0°C° 0.3 mm 9 m/S 748 mmHg 81%
    10:00 0°C° 0.3 mm 9 m/S 749 mmHg 81%
    11:00 +1°C° 0.2 mm 9 m/S 749 mmHg 81%
    12:00 +1°C° 0.2 mm 9 m/S 749 mmHg 82%
    13:00 +1°C° 0.2 mm 9 m/S 750 mmHg 82%
    14:00 0°C° 0.2 mm 8 m/S 750 mmHg 82%
    15:00 0°C° 0.2 mm 8 m/S 749 mmHg 82%
    16:00 0°C° 0.2 mm 7 m/S 749 mmHg 82%
    17:00 +1°C° 0.1 mm 6 m/S 749 mmHg 83%
    18:00 0°C° 0.1 mm 5 m/S 749 mmHg 84%
    19:00 0°C° 0.1 mm 4 m/S 748 mmHg 86%
    20:00 0°C° 0.2 mm 4 m/S 747 mmHg 88%
    21:00 +1°C° 0.2 mm 3 m/S 746 mmHg 90%
    22:00 +2°C° 0.2 mm 2 m/S 745 mmHg 92%
    23:00 +2°C° 0.8 mm 2 m/S 744 mmHg 92%

    25 Oktober, Donnerstag

    Zeit Temperatur Niederschläge Wind Luftdruck Luftfeuchtigkeit
    00:00 +1°C° 0.8 mm 3 m/S 742 mmHg 93%
    01:00 +1°C° 0.8 mm 3 m/S 741 mmHg 94%
    02:00 0°C° 2.3 mm 4 m/S 740 mmHg 94%
    03:00 0°C° 2.3 mm 4 m/S 739 mmHg 95%
    04:00 0°C° 2.3 mm 4 m/S 738 mmHg 95%
    05:00 0°C° 0.6 mm 4 m/S 738 mmHg 95%
    06:00 0°C° 0.6 mm 4 m/S 738 mmHg 95%
    07:00 +1°C° 0.6 mm 3 m/S 738 mmHg 94%
    08:00 +1°C° 0.3 mm 3 m/S 739 mmHg 94%
    09:00 +2°C° 0.3 mm 2 m/S 739 mmHg 94%
    10:00 +2°C° 0.3 mm 1 m/S 740 mmHg 94%
    11:00 +2°C° 0.1 mm 2 m/S 740 mmHg 93%
    12:00 +2°C° 0.1 mm 2 m/S 741 mmHg 93%
    13:00 +3°C° 0.1 mm 2 m/S 741 mmHg 93%
    14:00 +3°C° 0.1 mm 2 m/S 742 mmHg 92%
    15:00 +2°C° 0.1 mm 3 m/S 742 mmHg 92%
    16:00 +2°C° 0.1 mm 3 m/S 743 mmHg 91%
    17:00 +2°C° 0.2 mm 3 m/S 743 mmHg 91%
    18:00 +2°C° 0.2 mm 3 m/S 743 mmHg 91%
    19:00 +2°C° 0.2 mm 3 m/S 743 mmHg 90%
    20:00 +2°C° 0.3 mm 3 m/S 744 mmHg 90%
    21:00 +1°C° 0.3 mm 3 m/S 744 mmHg 90%
    22:00 +1°C° 0.3 mm 3 m/S 744 mmHg 90%
    23:00 +1°C° 0.3 mm 3 m/S 744 mmHg 90%

    26 Oktober, Freitag

    Zeit Temperatur Niederschläge Wind Luftdruck Luftfeuchtigkeit
    00:00 +1°C° 0.3 mm 3 m/S 744 mmHg 90%
    01:00 +2°C° 0.3 mm 2 m/S 744 mmHg 90%
    02:00 +1°C° 0.2 mm 2 m/S 744 mmHg 90%
    03:00 +1°C° 0.2 mm 2 m/S 744 mmHg 90%
    04:00 +1°C° 0.2 mm 2 m/S 744 mmHg 90%
    05:00 +1°C° 0.3 mm 2 m/S 744 mmHg 90%
    06:00 +1°C° 0.3 mm 2 m/S 745 mmHg 90%
    07:00 0°C° 0.3 mm 3 m/S 745 mmHg 90%
    08:00 0°C° 0.2 mm 3 m/S 744 mmHg 90%
    09:00 +1°C° 0.2 mm 3 m/S 744 mmHg 89%
    10:00 0°C° 0.2 mm 4 m/S 744 mmHg 89%
    11:00 0°C° 0.3 mm 4 m/S 744 mmHg 89%
    12:00 +1°C° 0.3 mm 5 m/S 744 mmHg 89%
    13:00 +1°C° 0.3 mm 5 m/S 744 mmHg 89%
    14:00 +1°C° 0.5 mm 5 m/S 744 mmHg 89%
    15:00 +1°C° 0.5 mm 4 m/S 744 mmHg 89%
    16:00 +1°C° 0.5 mm 4 m/S 744 mmHg 89%
    17:00 0°C° 0.1 mm 4 m/S 744 mmHg 89%
    18:00 0°C° 0.1 mm 4 m/S 745 mmHg 88%
    19:00 0°C° 0.1 mm 4 m/S 745 mmHg 87%
    20:00 0°C° 0.1 mm 4 m/S 745 mmHg 86%
    21:00 0°C° 0.1 mm 4 m/S 745 mmHg 86%
    22:00 -1°C° 0.1 mm 5 m/S 745 mmHg 86%
    23:00 0°C° 0.3 mm 5 m/S 745 mmHg 86%
    Mehr zeigen